Time,TemperatureF,DewpointF,PressureIn,WindDirection,WindDirectionDegrees,WindSpeedMPH,WindSpeedGustMPH,Humidity,HourlyPrecipIn,Conditions,Clouds,dailyrainin,SoftwareType,DateUTC
2013-06-13 00:01:00,53.3,53.3,29.81,ENE,75,0.0,0.0,100,0.00,,-RA,0.00,VWS V12.08,2013-06-13 04:01:00,
2013-06-13 00:06:00,53.0,53.0,29.81,ENE,75,0.0,0.0,100,0.00,,-RA,0.00,VWS V12.08,2013-06-13 04:06:00,
2013-06-13 00:11:00,52.7,52.7,29.81,ENE,75,0.0,0.0,100,0.00,,-RA,0.00,VWS V12.08,2013-06-13 04:11:00,
2013-06-13 00:16:00,52.4,52.4,29.81,ENE,75,0.0,0.0,100,0.00,,-RA,0.00,VWS V12.08,2013-06-13 04:16:00,
2013-06-13 00:21:00,52.2,52.2,29.81,ENE,75,0.0,0.0,100,0.00,,-RA,0.00,VWS V12.08,2013-06-13 04:21:00,
2013-06-13 00:26:00,51.9,51.9,29.81,ENE,75,0.0,0.0,100,0.00,,-RA,0.00,VWS V12.08,2013-06-13 04:26:00,
2013-06-13 00:31:00,51.8,51.8,29.81,ENE,75,0.0,0.0,100,0.00,,-RA,0.00,VWS V12.08,2013-06-13 04:31:00,
2013-06-13 00:36:00,51.5,51.5,29.81,ENE,75,0.0,0.0,100,0.00,,-RA,0.00,VWS V12.08,2013-06-13 04:36:00,
2013-06-13 00:41:00,51.5,51.5,29.81,ENE,75,0.0,0.0,100,0.00,,-RA,0.00,VWS V12.08,2013-06-13 04:41:00,
2013-06-13 00:46:00,51.3,51.3,29.80,ENE,75,0.0,0.0,100,0.00,,-RA,0.00,VWS V12.08,2013-06-13 04:46:00,
2013-06-13 00:51:00,51.3,51.3,29.80,ENE,75,0.0,0.0,100,0.00,,-RA,0.00,VWS V12.08,2013-06-13 04:51:00,
2013-06-13 00:56:00,51.2,51.2,29.80,ENE,75,0.0,0.0,100,0.00,,-RA,0.00,VWS V12.08,2013-06-13 04:56:00,
2013-06-13 01:01:00,51.2,51.2,29.80,ENE,75,0.0,0.0,100,0.00,,SCT075,0.00,VWS V12.08,2013-06-13 05:01:00,
2013-06-13 01:06:00,51.1,51.1,29.80,ENE,75,0.0,0.0,100,0.00,,SCT075,0.00,VWS V12.08,2013-06-13 05:06:00,
2013-06-13 01:11:00,51.1,51.1,29.80,ENE,75,0.0,0.0,100,0.00,,SCT075,0.00,VWS V12.08,2013-06-13 05:11:00,
2013-06-13 01:16:00,50.9,50.9,29.80,ENE,75,0.0,0.0,100,0.00,,SCT075,0.00,VWS V12.08,2013-06-13 05:16:00,
2013-06-13 01:21:00,50.9,50.9,29.80,ENE,75,0.0,0.0,100,0.00,,SCT075,0.00,VWS V12.08,2013-06-13 05:21:00,
2013-06-13 01:26:00,50.8,50.8,29.80,ENE,75,0.0,0.0,100,0.00,,SCT075,0.00,VWS V12.08,2013-06-13 05:26:00,
2013-06-13 01:31:00,50.5,50.5,29.80,ENE,75,0.0,0.0,100,0.00,,SCT075,0.00,VWS V12.08,2013-06-13 05:31:00,
2013-06-13 01:36:00,50.3,50.3,29.80,ENE,75,0.0,0.0,100,0.00,,SCT075,0.00,VWS V12.08,2013-06-13 05:36:00,
2013-06-13 01:41:00,50.3,50.3,29.80,ENE,75,0.0,0.0,100,0.00,,SCT075,0.00,VWS V12.08,2013-06-13 05:41:00,
2013-06-13 01:46:00,50.3,50.3,29.80,ENE,75,0.0,0.0,100,0.00,,SCT075,0.00,VWS V12.08,2013-06-13 05:46:00,
2013-06-13 01:51:00,50.2,50.2,29.80,ENE,75,0.0,0.0,100,0.00,,SCT075,0.00,VWS V12.08,2013-06-13 05:51:00,
2013-06-13 01:56:00,50.2,50.2,29.80,ENE,75,0.0,0.0,100,0.00,,SCT075,0.00,VWS V12.08,2013-06-13 05:56:00,
2013-06-13 02:01:00,50.2,50.2,29.80,ENE,75,0.0,0.0,100,0.00,,,0.00,VWS V12.08,2013-06-13 06:01:00,
2013-06-13 02:06:00,50.3,50.3,29.80,ENE,75,0.0,0.0,100,0.00,,,0.00,VWS V12.08,2013-06-13 06:06:00,
2013-06-13 02:11:00,50.3,50.3,29.80,ENE,75,0.0,0.0,100,0.00,,,0.00,VWS V12.08,2013-06-13 06:11:00,
2013-06-13 02:16:00,50.3,50.3,29.80,ENE,75,0.0,0.0,100,0.00,,,0.00,VWS V12.08,2013-06-13 06:16:00,
2013-06-13 02:21:00,50.3,50.3,29.80,ENE,75,0.0,0.0,100,0.00,,,0.00,VWS V12.08,2013-06-13 06:21:00,
2013-06-13 02:26:00,50.3,50.3,29.80,ENE,75,0.0,0.0,100,0.00,,,0.00,VWS V12.08,2013-06-13 06:26:00,
2013-06-13 02:31:00,50.2,50.2,29.80,ENE,75,0.0,0.0,100,0.00,,,0.00,VWS V12.08,2013-06-13 06:31:00,
2013-06-13 02:36:00,50.2,50.2,29.80,ENE,75,0.0,0.0,100,0.00,,,0.00,VWS V12.08,2013-06-13 06:36:00,
2013-06-13 02:41:00,50.2,50.2,29.80,ENE,75,0.0,0.0,100,0.00,,,0.00,VWS V12.08,2013-06-13 06:41:00,
2013-06-13 02:46:00,50.2,50.2,29.80,ENE,75,2.0,2.0,100,0.00,,,0.00,VWS V12.08,2013-06-13 06:46:00,
2013-06-13 02:51:00,49.9,49.9,29.80,ENE,75,1.0,2.0,100,0.00,,,0.00,VWS V12.08,2013-06-13 06:51:00,
2013-06-13 02:56:00,49.7,49.7,29.80,ENE,75,0.0,0.0,100,0.00,,,0.00,VWS V12.08,2013-06-13 06:56:00,
2013-06-13 03:01:00,49.7,49.7,29.80,ENE,75,0.0,0.0,100,0.00,,,0.00,VWS V12.08,2013-06-13 07:01:00,
2013-06-13 03:06:00,49.6,49.6,29.80,ENE,75,0.0,0.0,100,0.00,,,0.00,VWS V12.08,2013-06-13 07:06:00,
2013-06-13 03:11:00,49.6,49.6,29.80,ENE,75,0.0,0.0,100,0.00,,,0.00,VWS V12.08,2013-06-13 07:11:00,
2013-06-13 03:16:00,49.4,49.4,29.80,ENE,75,0.0,0.0,100,0.00,,,0.00,VWS V12.08,2013-06-13 07:16:00,
2013-06-13 03:22:00,49.3,49.3,29.80,ENE,75,0.0,0.0,100,0.00,,,0.00,VWS V12.08,2013-06-13 07:22:00,
2013-06-13 03:27:00,49.1,49.1,29.80,ENE,75,0.0,0.0,100,0.00,,,0.00,VWS V12.08,2013-06-13 07:27:00,
2013-06-13 03:32:00,49.0,49.0,29.80,ENE,75,0.0,2.0,100,0.00,,,0.00,VWS V12.08,2013-06-13 07:32:00,
2013-06-13 03:37:00,49.0,49.0,29.80,ENE,75,0.0,0.0,100,0.00,,,0.00,VWS V12.08,2013-06-13 07:37:00,
2013-06-13 03:42:00,48.8,48.8,29.80,ENE,75,0.0,0.0,100,0.00,,,0.00,VWS V12.08,2013-06-13 07:42:00,
2013-06-13 03:47:00,48.8,48.8,29.80,ENE,75,0.0,0.0,100,0.00,,,0.00,VWS V12.08,2013-06-13 07:47:00,
2013-06-13 03:52:00,48.8,48.8,29.80,ENE,75,0.0,0.0,100,0.00,,,0.00,VWS V12.08,2013-06-13 07:52:00,
2013-06-13 03:57:00,48.8,48.8,29.80,ENE,75,0.0,0.0,100,0.00,,,0.00,VWS V12.08,2013-06-13 07:57:00,
2013-06-13 04:02:00,48.7,48.7,29.80,ENE,75,0.0,0.0,100,0.00,,,0.00,VWS V12.08,2013-06-13 08:02:00,
2013-06-13 04:07:00,48.7,48.7,29.80,ENE,75,0.0,0.0,100,0.00,,,0.00,VWS V12.08,2013-06-13 08:07:00,
2013-06-13 04:12:00,48.5,48.5,29.80,ENE,75,0.0,0.0,100,0.00,,,0.00,VWS V12.08,2013-06-13 08:12:00,
2013-06-13 04:17:00,48.5,48.5,29.80,ENE,75,0.0,0.0,100,0.00,,,0.00,VWS V12.08,2013-06-13 08:17:00,
2013-06-13 04:22:00,48.4,48.4,29.80,ENE,75,0.0,0.0,100,0.00,,,0.00,VWS V12.08,2013-06-13 08:22:00,
2013-06-13 04:27:00,48.4,48.4,29.80,ENE,75,0.0,0.0,100,0.00,,,0.00,VWS V12.08,2013-06-13 08:27:00,
2013-06-13 04:32:00,48.4,48.4,29.80,ENE,75,0.0,0.0,100,0.00,,,0.00,VWS V12.08,2013-06-13 08:32:00,
2013-06-13 04:37:00,48.2,48.2,29.80,ENE,75,0.0,0.0,100,0.00,,,0.00,VWS V12.08,2013-06-13 08:37:00,
2013-06-13 04:42:00,48.1,48.1,29.80,ENE,75,2.0,3.0,100,0.00,,,0.00,VWS V12.08,2013-06-13 08:42:00,
2013-06-13 04:47:00,47.9,47.9,29.80,ENE,75,0.0,0.0,100,0.00,,,0.00,VWS V12.08,2013-06-13 08:47:00,
2013-06-13 04:52:00,47.8,47.8,29.80,ENE,75,0.0,2.0,100,0.00,,,0.00,VWS V12.08,2013-06-13 08:52:00,
2013-06-13 04:57:00,47.8,47.8,29.80,ENE,75,1.0,2.0,100,0.00,,,0.00,VWS V12.08,2013-06-13 08:57:00,
2013-06-13 05:02:00,47.8,47.8,29.80,ENE,75,2.0,3.0,100,0.00,,-RA,0.00,VWS V12.08,2013-06-13 09:02:00,
2013-06-13 05:07:00,47.6,47.6,29.80,ENE,75,1.0,2.0,100,0.00,,-RA,0.00,VWS V12.08,2013-06-13 09:07:00,
2013-06-13 05:12:00,47.6,47.6,29.80,ENE,75,1.0,3.0,100,0.00,,-RA,0.00,VWS V12.08,2013-06-13 09:12:00,
2013-06-13 05:17:00,47.6,47.6,29.80,ENE,75,0.0,0.0,100,0.00,,-RA,0.00,VWS V12.08,2013-06-13 09:17:00,
2013-06-13 05:22:00,47.6,47.6,29.80,ENE,75,0.0,0.0,100,0.00,,-RA,0.00,VWS V12.08,2013-06-13 09:22:00,
2013-06-13 05:27:00,47.6,47.6,29.80,ENE,75,0.0,0.0,100,0.00,,-RA,0.00,VWS V12.08,2013-06-13 09:27:00,
2013-06-13 05:32:00,47.5,47.5,29.80,ENE,75,0.0,0.0,100,0.00,,-RA,0.00,VWS V12.08,2013-06-13 09:32:00,
2013-06-13 05:37:00,47.5,47.5,29.80,ENE,75,0.0,0.0,100,0.00,,-RA,0.00,VWS V12.08,2013-06-13 09:37:00,
2013-06-13 05:42:00,47.5,47.5,29.80,ENE,75,0.0,0.0,100,0.00,,-RA,0.00,VWS V12.08,2013-06-13 09:42:00,
2013-06-13 05:47:00,47.5,47.5,29.81,ENE,75,0.0,0.0,100,0.00,,-RA,0.00,VWS V12.08,2013-06-13 09:47:00,
2013-06-13 05:52:00,47.5,47.5,29.81,ENE,75,0.0,0.0,100,0.00,,-RA,0.00,VWS V12.08,2013-06-13 09:52:00,
2013-06-13 05:57:00,47.4,47.4,29.81,ENE,75,0.0,1.0,100,0.00,,-RA,0.00,VWS V12.08,2013-06-13 09:57:00,
2013-06-13 06:02:00,47.4,47.4,29.81,ENE,75,2.0,2.0,100,0.00,,-RA,0.00,VWS V12.08,2013-06-13 10:02:00,
2013-06-13 06:07:00,47.2,47.2,29.81,ENE,75,1.0,2.0,100,0.00,,-RA,0.00,VWS V12.08,2013-06-13 10:07:00,
2013-06-13 06:12:00,47.2,47.2,29.81,ENE,75,0.0,0.0,100,0.00,,-RA,0.00,VWS V12.08,2013-06-13 10:12:00,
2013-06-13 06:17:00,47.2,47.2,29.82,ENE,75,0.0,0.0,100,0.00,,-RA,0.00,VWS V12.08,2013-06-13 10:17:00,
2013-06-13 06:22:00,47.1,47.1,29.82,ENE,75,0.0,0.0,100,0.00,,-RA,0.00,VWS V12.08,2013-06-13 10:22:00,
2013-06-13 06:27:00,46.9,46.9,29.82,ENE,75,0.0,0.0,100,0.00,,-RA,0.00,VWS V12.08,2013-06-13 10:27:00,
2013-06-13 06:32:00,47.2,47.2,29.81,ENE,75,3.0,3.0,100,0.00,,-RA,0.00,VWS V12.08,2013-06-13 10:32:00,
2013-06-13 06:37:00,47.4,47.4,29.81,ENE,75,3.0,3.0,100,0.00,,-RA,0.00,VWS V12.08,2013-06-13 10:37:00,
2013-06-13 06:42:00,47.4,47.4,29.81,ENE,75,1.0,2.0,100,0.00,,-RA,0.00,VWS V12.08,2013-06-13 10:42:00,
2013-06-13 06:47:00,47.2,47.2,29.80,ENE,75,3.0,3.0,100,0.00,,-RA,0.00,VWS V12.08,2013-06-13 10:47:00,
2013-06-13 06:52:00,47.2,47.2,29.80,ENE,75,0.0,3.0,100,0.00,,-RA,0.00,VWS V12.08,2013-06-13 10:52:00,
2013-06-13 06:57:00,47.2,47.2,29.80,ENE,75,2.0,5.0,100,0.00,,-RA,0.00,VWS V12.08,2013-06-13 10:57:00,
2013-06-13 07:02:00,47.4,47.4,29.80,ENE,75,2.0,4.0,100,0.00,,-RA,0.00,VWS V12.08,2013-06-13 11:02:00,
2013-06-13 07:07:00,47.4,47.4,29.80,ENE,75,0.0,0.0,100,0.00,,-RA,0.00,VWS V12.08,2013-06-13 11:07:00,
2013-06-13 07:12:00,47.4,47.4,29.81,ENE,75,2.0,2.0,100,0.00,,-RA,0.00,VWS V12.08,2013-06-13 11:12:00,
2013-06-13 07:17:00,47.5,47.5,29.81,ENE,75,0.0,2.0,100,0.00,,-RA,0.00,VWS V12.08,2013-06-13 11:17:00,
2013-06-13 07:22:00,47.2,47.2,29.81,ENE,75,0.0,0.0,100,0.00,,-RA,0.00,VWS V12.08,2013-06-13 11:22:00,
2013-06-13 07:27:00,47.5,47.5,29.80,ENE,75,0.0,0.0,100,0.00,,-RA,0.00,VWS V12.08,2013-06-13 11:27:00,
2013-06-13 07:32:00,47.8,47.8,29.80,ENE,75,0.0,0.0,100,0.00,,-RA,0.00,VWS V12.08,2013-06-13 11:32:00,
2013-06-13 07:37:00,47.9,47.9,29.80,ENE,75,0.0,0.0,100,0.00,,-RA,0.00,VWS V12.08,2013-06-13 11:37:00,
2013-06-13 07:42:00,48.2,48.2,29.81,ENE,75,1.0,3.0,100,0.00,,-RA,0.00,VWS V12.08,2013-06-13 11:42:00,
2013-06-13 07:47:00,48.1,48.1,29.81,ENE,75,0.0,0.0,100,0.00,,-RA,0.00,VWS V12.08,2013-06-13 11:47:00,
2013-06-13 07:52:00,48.2,48.2,29.81,ENE,75,3.0,3.0,100,0.00,,-RA,0.00,VWS V12.08,2013-06-13 11:52:00,
2013-06-13 07:57:00,48.5,48.5,29.80,ENE,75,1.0,3.0,100,0.00,,-RA,0.00,VWS V12.08,2013-06-13 11:57:00,
2013-06-13 08:02:00,48.8,48.8,29.80,ENE,75,1.0,3.0,100,0.00,,-RA,0.00,VWS V12.08,2013-06-13 12:02:00,
2013-06-13 08:07:00,49.1,49.1,29.80,ENE,75,2.0,5.0,100,0.00,,-RA,0.00,VWS V12.08,2013-06-13 12:07:00,
2013-06-13 08:12:00,49.3,49.3,29.79,ENE,75,2.0,6.0,100,0.00,,-RA,0.00,VWS V12.08,2013-06-13 12:12:00,
2013-06-13 08:17:00,49.4,49.4,29.79,ENE,75,5.0,5.0,100,0.00,,-RA,0.00,VWS V12.08,2013-06-13 12:17:00,
2013-06-13 08:22:00,49.7,49.7,29.79,ENE,75,2.0,5.0,100,0.00,,-RA,0.00,VWS V12.08,2013-06-13 12:22:00,
2013-06-13 08:27:00,50.0,50.0,29.78,ENE,75,1.0,5.0,100,0.00,,-RA,0.00,VWS V12.08,2013-06-13 12:27:00,
2013-06-13 08:32:00,50.3,50.3,29.78,ENE,75,2.0,5.0,100,0.00,,-RA,0.00,VWS V12.08,2013-06-13 12:32:00,
2013-06-13 08:37:00,50.6,50.6,29.78,ENE,75,4.0,4.0,100,0.00,,-RA,0.00,VWS V12.08,2013-06-13 12:37:00,
2013-06-13 08:42:00,51.1,51.1,29.78,ENE,75,2.0,3.0,100,0.00,,-RA,0.00,VWS V12.08,2013-06-13 12:42:00,
2013-06-13 08:47:00,51.5,51.5,29.78,ENE,75,2.0,3.0,100,0.00,,-RA,0.00,VWS V12.08,2013-06-13 12:47:00,
2013-06-13 08:53:00,52.1,52.1,29.78,ENE,75,2.0,5.0,100,0.00,,-RA,0.00,VWS V12.08,2013-06-13 12:53:00,
2013-06-13 08:58:00,53.3,53.3,29.77,ENE,75,3.0,3.0,100,0.00,,-RA,0.00,VWS V12.08,2013-06-13 12:58:00,
2013-06-13 09:03:00,54.2,54.2,29.77,ENE,75,2.0,3.0,100,0.00,,-RA,0.00,VWS V12.08,2013-06-13 13:03:00,
2013-06-13 09:08:00,54.7,54.7,29.77,ENE,75,2.0,3.0,100,0.00,,-RA,0.00,VWS V12.08,2013-06-13 13:08:00,
2013-06-13 09:13:00,55.6,55.6,29.76,ENE,75,2.0,3.0,100,0.00,,-RA,0.00,VWS V12.08,2013-06-13 13:13:00,
2013-06-13 09:18:00,56.6,55.5,29.76,ENE,75,2.0,3.0,96,0.00,,-RA,0.00,VWS V12.08,2013-06-13 13:18:00,
2013-06-13 09:23:00,57.5,55.2,29.76,ENE,75,2.0,3.0,92,0.00,,CLR,0.00,VWS V12.08,2013-06-13 13:23:00,
2013-06-13 09:28:00,58.2,55.3,29.76,ENE,75,2.0,2.0,90,0.00,,CLR,0.00,VWS V12.08,2013-06-13 13:28:00,
2013-06-13 09:33:00,59.2,55.0,29.76,ENE,75,0.0,2.0,86,0.00,,CLR,0.00,VWS V12.08,2013-06-13 13:33:00,
2013-06-13 09:38:00,60.1,54.9,29.76,ENE,75,0.0,0.0,83,0.00,,CLR,0.00,VWS V12.08,2013-06-13 13:38:00,
2013-06-13 09:43:00,60.7,54.5,29.75,ENE,75,0.0,0.0,80,0.00,,CLR,0.00,VWS V12.08,2013-06-13 13:43:00,
2013-06-13 09:48:00,61.4,54.8,29.75,ENE,75,0.0,0.0,79,0.00,,CLR,0.00,VWS V12.08,2013-06-13 13:48:00,
2013-06-13 09:53:00,61.5,54.6,29.75,ENE,75,0.0,2.0,78,0.00,,CLR,0.00,VWS V12.08,2013-06-13 13:53:00,
2013-06-13 09:58:00,61.4,54.8,29.75,ENE,75,0.0,0.0,79,0.00,,CLR,0.00,VWS V12.08,2013-06-13 13:58:00,
2013-06-13 10:03:00,62.2,55.6,29.75,ENE,75,0.0,2.0,79,0.00,,CLR,0.00,VWS V12.08,2013-06-13 14:03:00,
2013-06-13 10:08:00,63.2,55.5,29.75,ENE,75,0.0,0.0,76,0.00,,CLR,0.00,VWS V12.08,2013-06-13 14:08:00,
2013-06-13 10:13:00,63.6,55.2,29.75,ENE,75,0.0,0.0,74,0.00,,CLR,0.00,VWS V12.08,2013-06-13 14:13:00,
2013-06-13 10:18:00,64.6,56.1,29.75,ENE,75,0.0,2.0,74,0.00,,CLR,0.00,VWS V12.08,2013-06-13 14:18:00,
2013-06-13 10:23:00,64.9,55.7,29.75,ENE,75,0.0,0.0,72,0.00,,CLR,0.00,VWS V12.08,2013-06-13 14:23:00,
2013-06-13 10:28:00,64.9,55.7,29.74,ENE,75,0.0,0.0,72,0.00,,CLR,0.00,VWS V12.08,2013-06-13 14:28:00,
2013-06-13 10:33:00,65.8,56.2,29.74,ENE,75,0.0,0.0,71,0.00,,CLR,0.00,VWS V12.08,2013-06-13 14:33:00,
2013-06-13 10:38:00,66.1,56.0,29.74,ENE,75,1.0,1.0,70,0.00,,CLR,0.00,VWS V12.08,2013-06-13 14:38:00,
2013-06-13 10:43:00,65.6,55.2,29.73,ENE,75,0.0,0.0,69,0.00,,CLR,0.00,VWS V12.08,2013-06-13 14:43:00,
2013-06-13 10:48:00,65.8,53.7,29.73,ENE,75,0.0,0.0,65,0.00,,CLR,0.00,VWS V12.08,2013-06-13 14:48:00,
2013-06-13 10:53:00,66.8,53.8,29.73,ENE,75,1.0,2.0,63,0.00,,CLR,0.00,VWS V12.08,2013-06-13 14:53:00,
2013-06-13 10:58:00,66.6,52.3,29.73,ENE,75,0.0,0.0,60,0.00,,CLR,0.00,VWS V12.08,2013-06-13 14:58:00,
2013-06-13 11:03:00,66.6,53.2,29.73,ENE,75,0.0,0.0,62,0.00,,CLR,0.00,VWS V12.08,2013-06-13 15:03:00,
2013-06-13 11:08:00,67.3,53.4,29.73,ENE,75,0.0,0.0,61,0.00,,CLR,0.00,VWS V12.08,2013-06-13 15:08:00,
2013-06-13 11:13:00,67.3,54.3,29.73,ENE,75,4.0,4.0,63,0.00,,CLR,0.00,VWS V12.08,2013-06-13 15:13:00,
2013-06-13 11:18:00,66.9,53.5,29.73,SW,234,2.0,3.0,62,0.00,,CLR,0.00,VWS V12.08,2013-06-13 15:18:00,
2013-06-13 11:23:00,66.9,56.0,29.73,SW,233,1.0,5.0,68,0.00,,CLR,0.00,VWS V12.08,2013-06-13 15:23:00,
2013-06-13 11:28:00,66.9,56.4,29.72,SW,229,2.0,6.0,69,0.00,,CLR,0.00,VWS V12.08,2013-06-13 15:28:00,
2013-06-13 11:33:00,66.6,56.9,29.72,WSW,239,2.0,5.0,71,0.00,,CLR,0.00,VWS V12.08,2013-06-13 15:33:00,
2013-06-13 11:38:00,66.6,56.5,29.72,WSW,247,2.0,3.0,70,0.00,,CLR,0.00,VWS V12.08,2013-06-13 15:38:00,
2013-06-13 11:43:00,66.6,56.5,29.72,WSW,241,3.0,6.0,70,0.00,,CLR,0.00,VWS V12.08,2013-06-13 15:43:00,
2013-06-13 11:48:00,66.8,57.1,29.72,WSW,237,1.0,2.0,71,0.00,,CLR,0.00,VWS V12.08,2013-06-13 15:48:00,
2013-06-13 11:53:00,66.8,56.7,29.72,WSW,237,2.0,5.0,70,0.00,,CLR,0.00,VWS V12.08,2013-06-13 15:53:00,
2013-06-13 11:58:00,66.4,56.3,29.72,SW,233,2.0,3.0,70,0.00,,CLR,0.00,VWS V12.08,2013-06-13 15:58:00,
2013-06-13 12:03:00,66.1,56.4,29.72,SW,234,0.0,0.0,71,0.00,,CLR,0.00,VWS V12.08,2013-06-13 16:03:00,
2013-06-13 12:08:00,65.8,56.2,29.72,SW,234,1.0,2.0,71,0.00,,CLR,0.00,VWS V12.08,2013-06-13 16:08:00,
2013-06-13 12:13:00,65.6,56.3,29.72,SW,234,1.0,5.0,72,0.00,,CLR,0.00,VWS V12.08,2013-06-13 16:13:00,
2013-06-13 12:18:00,65.3,56.4,29.72,SW,234,0.0,2.0,73,0.00,,CLR,0.00,VWS V12.08,2013-06-13 16:18:00,
2013-06-13 12:23:00,64.9,56.4,29.72,SW,234,0.0,0.0,74,0.00,,CLR,0.00,VWS V12.08,2013-06-13 16:23:00,
2013-06-13 12:28:00,64.8,56.3,29.72,SW,234,0.0,0.0,74,0.00,,CLR,0.00,VWS V12.08,2013-06-13 16:28:00,
2013-06-13 12:33:00,64.8,56.3,29.72,SW,234,0.0,0.0,74,0.00,,CLR,0.00,VWS V12.08,2013-06-13 16:33:00,
2013-06-13 12:38:00,64.8,57.1,29.72,SW,234,0.0,0.0,76,0.00,,CLR,0.00,VWS V12.08,2013-06-13 16:38:00,
2013-06-13 12:43:00,64.8,58.1,29.72,SW,234,0.0,0.0,79,0.00,,CLR,0.00,VWS V12.08,2013-06-13 16:43:00,
2013-06-13 12:48:00,64.9,59.3,29.72,SW,234,0.0,0.0,82,0.00,,CLR,0.00,VWS V12.08,2013-06-13 16:48:00,
2013-06-13 12:53:00,64.8,57.8,29.72,SW,234,0.0,0.0,78,0.00,,CLR,0.00,VWS V12.08,2013-06-13 16:53:00,
2013-06-13 12:58:00,64.4,57.0,29.71,SW,234,0.0,0.0,77,0.00,,CLR,0.00,VWS V12.08,2013-06-13 16:58:00,
2013-06-13 13:03:00,64.4,57.8,29.71,SW,234,0.0,0.0,79,0.00,,FEW055,0.00,VWS V12.08,2013-06-13 17:03:00,
2013-06-13 13:08:00,64.3,57.3,29.71,SW,234,0.0,0.0,78,0.00,,FEW055,0.00,VWS V12.08,2013-06-13 17:08:00,
2013-06-13 13:13:00,64.1,56.8,29.71,SW,234,0.0,0.0,77,0.00,,FEW055,0.00,VWS V12.08,2013-06-13 17:13:00,
2013-06-13 13:18:00,64.0,56.3,29.71,SW,234,0.0,0.0,76,0.00,,FEW055,0.00,VWS V12.08,2013-06-13 17:18:00,
2013-06-13 13:23:00,64.0,56.7,29.71,SW,234,0.0,0.0,77,0.00,,FEW055,0.00,VWS V12.08,2013-06-13 17:23:00,
2013-06-13 13:28:00,63.6,55.9,29.71,SW,234,0.0,0.0,76,0.00,,FEW055,0.00,VWS V12.08,2013-06-13 17:28:00,
2013-06-13 13:33:00,63.6,57.0,29.71,SW,234,0.0,0.0,79,0.00,,FEW055,0.00,VWS V12.08,2013-06-13 17:33:00,
2013-06-13 13:38:00,63.5,57.9,29.71,SW,234,0.0,0.0,82,0.00,,FEW055,0.00,VWS V12.08,2013-06-13 17:38:00,
2013-06-13 13:43:00,63.3,58.1,29.71,SW,234,0.0,0.0,83,0.00,,FEW055,0.00,VWS V12.08,2013-06-13 17:43:00,
2013-06-13 13:48:00,63.2,58.0,29.71,SW,234,0.0,0.0,83,0.00,,FEW055,0.00,VWS V12.08,2013-06-13 17:48:00,
2013-06-13 13:53:00,63.0,58.1,29.71,SW,234,0.0,0.0,84,0.00,,FEW055,0.00,VWS V12.08,2013-06-13 17:53:00,
2013-06-13 13:58:00,63.0,58.1,29.70,SW,234,0.0,0.0,84,0.00,,FEW055,0.00,VWS V12.08,2013-06-13 17:58:00,
2013-06-13 14:03:00,63.0,58.8,29.70,SW,234,0.0,0.0,86,0.00,,FEW055,0.00,VWS V12.08,2013-06-13 18:03:00,
2013-06-13 14:08:00,62.8,58.6,29.70,SW,234,0.0,0.0,86,0.00,,FEW055,0.00,VWS V12.08,2013-06-13 18:08:00,
2013-06-13 14:14:00,62.7,58.8,29.69,SW,234,0.0,0.0,87,0.00,,FEW055,0.00,VWS V12.08,2013-06-13 18:14:00,
2013-06-13 14:19:00,62.3,58.4,29.69,SW,234,0.0,0.0,87,0.00,,FEW055,0.00,VWS V12.08,2013-06-13 18:19:00,
2013-06-13 14:24:00,62.3,58.7,29.69,SW,234,0.0,0.0,88,0.00,,FEW055,0.00,VWS V12.08,2013-06-13 18:24:00,
2013-06-13 14:29:00,62.3,58.7,29.69,SW,234,0.0,0.0,88,0.00,,FEW055,0.00,VWS V12.08,2013-06-13 18:29:00,
2013-06-13 14:34:00,62.3,58.7,29.69,SW,234,0.0,0.0,88,0.00,,FEW055,0.00,VWS V12.08,2013-06-13 18:34:00,
2013-06-13 14:39:00,62.5,59.2,29.69,SW,234,0.0,0.0,89,0.00,,FEW055,0.00,VWS V12.08,2013-06-13 18:39:00,
2013-06-13 14:44:00,62.5,58.9,29.69,SW,234,0.0,0.0,88,0.00,,FEW055,0.00,VWS V12.08,2013-06-13 18:44:00,
2013-06-13 14:49:00,62.3,58.7,29.69,SW,234,0.0,0.0,88,0.00,,FEW055,0.00,VWS V12.08,2013-06-13 18:49:00,
2013-06-13 14:54:00,62.7,58.8,29.69,SW,234,0.0,0.0,87,0.00,,FEW055,0.00,VWS V12.08,2013-06-13 18:54:00,
2013-06-13 14:59:00,62.7,58.5,29.68,SW,234,0.0,0.0,86,0.00,,FEW055,0.00,VWS V12.08,2013-06-13 18:59:00,
2013-06-13 15:04:00,63.0,59.1,29.68,SW,234,0.0,0.0,87,0.00,,OVC090,0.00,VWS V12.08,2013-06-13 19:04:00,
2013-06-13 15:09:00,63.2,59.3,29.68,SW,234,0.0,0.0,87,0.00,,OVC090,0.00,VWS V12.08,2013-06-13 19:09:00,
2013-06-13 15:14:00,63.0,58.1,29.68,SW,234,0.0,0.0,84,0.00,,OVC090,0.00,VWS V12.08,2013-06-13 19:14:00,
2013-06-13 15:19:00,63.0,57.4,29.68,SW,234,0.0,0.0,82,0.00,,OVC090,0.00,VWS V12.08,2013-06-13 19:19:00,
2013-06-13 15:24:00,63.0,57.4,29.68,SW,234,0.0,0.0,82,0.00,,OVC090,0.00,VWS V12.08,2013-06-13 19:24:00,
2013-06-13 15:29:00,63.3,58.4,29.68,SW,234,0.0,0.0,84,0.00,,OVC090,0.00,VWS V12.08,2013-06-13 19:29:00,
2013-06-13 15:34:00,63.5,57.9,29.68,SW,234,0.0,0.0,82,0.00,,OVC090,0.00,VWS V12.08,2013-06-13 19:34:00,
2013-06-13 15:39:00,63.6,58.0,29.68,SW,234,0.0,0.0,82,0.00,,OVC090,0.00,VWS V12.08,2013-06-13 19:39:00,
2013-06-13 15:44:00,64.0,58.1,29.67,SW,234,0.0,1.0,81,0.00,,CLR,0.00,VWS V12.08,2013-06-13 19:44:00,
2013-06-13 15:49:00,64.1,57.1,29.67,SW,234,0.0,0.0,78,0.00,,CLR,0.00,VWS V12.08,2013-06-13 19:49:00,
2013-06-13 15:54:00,64.3,57.0,29.67,SW,234,0.0,0.0,77,0.00,,CLR,0.00,VWS V12.08,2013-06-13 19:54:00,
2013-06-13 15:59:00,64.4,56.7,29.67,SW,234,1.0,2.0,76,0.00,,CLR,0.00,VWS V12.08,2013-06-13 19:59:00,
2013-06-13 16:04:00,64.4,55.9,29.67,SW,234,0.0,2.0,74,0.00,,CLR,0.00,VWS V12.08,2013-06-13 20:04:00,
2013-06-13 16:09:00,64.4,55.9,29.67,SW,234,0.0,0.0,74,0.00,,CLR,0.00,VWS V12.08,2013-06-13 20:09:00,
2013-06-13 16:14:00,64.4,56.3,29.67,SW,234,0.0,0.0,75,0.00,,CLR,0.00,VWS V12.08,2013-06-13 20:14:00,
2013-06-13 16:19:00,64.4,56.7,29.67,SW,234,0.0,0.0,76,0.00,,CLR,0.00,VWS V12.08,2013-06-13 20:19:00,
2013-06-13 16:24:00,64.6,56.5,29.67,SW,234,0.0,0.0,75,0.00,,CLR,0.00,VWS V12.08,2013-06-13 20:24:00,
2013-06-13 16:29:00,64.4,54.8,29.67,SW,234,0.0,2.0,71,0.00,,CLR,0.00,VWS V12.08,2013-06-13 20:29:00,
2013-06-13 16:34:00,64.4,54.8,29.67,SW,234,0.0,0.0,71,0.00,,CLR,0.00,VWS V12.08,2013-06-13 20:34:00,
2013-06-13 16:39:00,64.6,56.1,29.67,SW,234,0.0,0.0,74,0.00,,CLR,0.00,VWS V12.08,2013-06-13 20:39:00,
2013-06-13 16:44:00,64.6,57.2,29.67,SW,234,0.0,0.0,77,0.00,,CLR,0.00,VWS V12.08,2013-06-13 20:44:00,
2013-06-13 16:49:00,64.6,56.9,29.67,SW,234,0.0,0.0,76,0.00,,CLR,0.00,VWS V12.08,2013-06-13 20:49:00,
2013-06-13 16:54:00,64.6,58.0,29.67,SW,234,0.0,0.0,79,0.00,,CLR,0.00,VWS V12.08,2013-06-13 20:54:00,
2013-06-13 16:59:00,64.3,57.0,29.67,SW,234,0.0,0.0,77,0.00,,CLR,0.00,VWS V12.08,2013-06-13 20:59:00,
2013-06-13 17:04:00,64.0,57.4,29.67,SW,234,0.0,0.0,79,0.00,,CLR,0.00,VWS V12.08,2013-06-13 21:04:00,
2013-06-13 17:09:00,63.8,57.2,29.67,SW,234,0.0,0.0,79,0.00,,CLR,0.00,VWS V12.08,2013-06-13 21:09:00,
2013-06-13 17:14:00,63.6,55.9,29.68,SW,234,0.0,1.0,76,0.00,,CLR,0.00,VWS V12.08,2013-06-13 21:14:00,
2013-06-13 17:19:00,63.5,56.5,29.68,SW,229,1.0,2.0,78,0.00,,CLR,0.00,VWS V12.08,2013-06-13 21:19:00,
2013-06-13 17:24:00,63.3,55.6,29.68,West,261,2.0,6.0,76,0.00,,CLR,0.00,VWS V12.08,2013-06-13 21:24:00,
2013-06-13 17:29:00,63.2,55.9,29.68,West,275,0.0,2.0,77,0.00,,CLR,0.00,VWS V12.08,2013-06-13 21:29:00,
2013-06-13 17:34:00,63.0,56.0,29.68,West,275,1.0,1.0,78,0.00,,CLR,0.00,VWS V12.08,2013-06-13 21:34:00,
2013-06-13 17:39:00,62.3,55.4,29.68,WSW,256,2.0,6.0,78,0.00,,CLR,0.00,VWS V12.08,2013-06-13 21:39:00,
2013-06-13 17:44:00,61.9,55.3,29.69,WNW,299,1.0,14.0,79,0.00,,CLR,0.00,VWS V12.08,2013-06-13 21:44:00,
2013-06-13 17:49:00,61.2,55.0,29.69,SSW,199,4.0,9.0,80,0.00,,CLR,0.00,VWS V12.08,2013-06-13 21:49:00,
2013-06-13 17:54:00,60.9,55.0,29.69,SW,230,1.0,7.0,81,0.00,,CLR,0.00,VWS V12.08,2013-06-13 21:54:00,
2013-06-13 17:59:00,60.7,55.2,29.70,SW,232,0.0,0.0,82,0.00,,CLR,0.00,VWS V12.08,2013-06-13 21:59:00,
2013-06-13 18:04:00,60.7,55.5,29.70,SW,232,5.0,6.0,83,0.00,,CLR,0.00,VWS V12.08,2013-06-13 22:04:00,
2013-06-13 18:09:00,60.3,55.1,29.70,SW,233,2.0,6.0,83,0.00,,CLR,0.00,VWS V12.08,2013-06-13 22:09:00,
2013-06-13 18:14:00,60.0,54.8,29.70,WSW,241,0.0,5.0,83,0.00,,CLR,0.00,VWS V12.08,2013-06-13 22:14:00,
2013-06-13 18:19:00,59.8,55.0,29.70,WSW,237,0.0,1.0,84,0.00,,CLR,0.00,VWS V12.08,2013-06-13 22:19:00,
2013-06-13 18:24:00,59.5,55.0,29.70,WSW,258,0.0,1.0,85,0.00,,CLR,0.00,VWS V12.08,2013-06-13 22:24:00,
2013-06-13 18:29:00,59.3,54.8,29.70,WSW,258,0.0,2.0,85,0.00,,CLR,0.00,VWS V12.08,2013-06-13 22:29:00,
2013-06-13 18:34:00,59.2,55.0,29.70,SW,234,0.0,1.0,86,0.00,,CLR,0.00,VWS V12.08,2013-06-13 22:34:00,
2013-06-13 18:39:00,59.0,54.8,29.70,SW,234,0.0,0.0,86,0.00,,CLR,0.00,VWS V12.08,2013-06-13 22:39:00,
2013-06-13 18:44:00,58.9,55.4,29.70,SW,234,0.0,0.0,88,0.00,,CLR,0.00,VWS V12.08,2013-06-13 22:44:00,
2013-06-13 18:49:00,58.7,55.2,29.70,SW,234,0.0,0.0,88,0.00,,CLR,0.00,VWS V12.08,2013-06-13 22:49:00,
2013-06-13 18:54:00,58.5,55.3,29.70,SW,234,0.0,0.0,89,0.00,,CLR,0.00,VWS V12.08,2013-06-13 22:54:00,
2013-06-13 18:59:00,58.4,55.5,29.71,SW,234,0.0,0.0,90,0.00,,CLR,0.00,VWS V12.08,2013-06-13 22:59:00,
2013-06-13 19:04:00,58.2,55.3,29.71,SW,234,0.0,0.0,90,0.00,,OVC060,0.00,VWS V12.08,2013-06-13 23:04:00,
2013-06-13 19:09:00,58.1,55.2,29.71,SW,234,0.0,0.0,90,0.00,,OVC060,0.00,VWS V12.08,2013-06-13 23:09:00,
2013-06-13 19:14:00,57.9,55.3,29.71,SW,234,0.0,0.0,91,0.00,,OVC060,0.00,VWS V12.08,2013-06-13 23:14:00,
2013-06-13 19:19:00,57.9,55.3,29.71,SW,234,0.0,0.0,91,0.00,,OVC060,0.00,VWS V12.08,2013-06-13 23:19:00,
2013-06-13 19:24:00,57.8,55.5,29.71,SW,234,0.0,0.0,92,0.00,,OVC060,0.00,VWS V12.08,2013-06-13 23:24:00,
2013-06-13 19:29:00,57.8,55.5,29.71,SW,234,0.0,0.0,92,0.00,,OVC060,0.00,VWS V12.08,2013-06-13 23:29:00,
2013-06-13 19:34:00,57.6,55.3,29.71,SW,234,0.0,0.0,92,0.00,,OVC060,0.00,VWS V12.08,2013-06-13 23:34:00,
2013-06-13 19:39:00,57.6,55.3,29.71,SW,234,0.0,0.0,92,0.00,,OVC060,0.00,VWS V12.08,2013-06-13 23:39:00,
2013-06-13 19:44:00,57.5,55.5,29.72,SW,234,0.0,0.0,93,0.00,,OVC060,0.00,VWS V12.08,2013-06-13 23:44:00,
2013-06-13 19:49:00,57.3,55.3,29.72,SW,234,0.0,0.0,93,0.00,,OVC060,0.00,VWS V12.08,2013-06-13 23:49:00,
2013-06-13 19:54:00,57.3,55.6,29.72,SW,234,0.0,0.0,94,0.00,,OVC060,0.00,VWS V12.08,2013-06-13 23:54:00,
2013-06-13 19:59:00,57.2,55.5,29.72,SW,234,0.0,0.0,94,0.00,,OVC060,0.00,VWS V12.08,2013-06-13 23:59:00,
2013-06-13 20:05:00,57.2,55.5,29.72,SW,234,0.0,0.0,94,0.00,,OVC046,0.00,VWS V12.08,2013-06-14 00:05:00,
2013-06-13 20:10:00,57.2,55.8,29.72,SW,234,0.0,0.0,95,0.00,,OVC046,0.00,VWS V12.08,2013-06-14 00:10:00,
2013-06-13 20:15:00,57.2,55.8,29.72,SW,234,0.0,0.0,95,0.00,,OVC046,0.00,VWS V12.08,2013-06-14 00:15:00,
2013-06-13 20:20:00,57.0,55.9,29.72,SW,234,0.0,0.0,96,0.01,,OVC046,0.01,VWS V12.08,2013-06-14 00:20:00,
2013-06-13 20:25:00,57.0,55.9,29.72,SW,234,0.0,0.0,96,0.01,,OVC046,0.01,VWS V12.08,2013-06-14 00:25:00,
2013-06-13 20:30:00,57.0,55.9,29.72,SW,234,0.0,0.0,96,0.01,,OVC046,0.01,VWS V12.08,2013-06-14 00:30:00,
2013-06-13 20:35:00,56.9,55.8,29.72,SW,234,0.0,0.0,96,0.01,,OVC046,0.01,VWS V12.08,2013-06-14 00:35:00,
2013-06-13 20:40:00,56.9,56.1,29.72,SW,234,0.0,0.0,97,0.01,,OVC046,0.01,VWS V12.08,2013-06-14 00:40:00,
2013-06-13 20:45:00,56.7,55.9,29.72,SW,234,0.0,0.0,97,0.01,,-RA,0.01,VWS V12.08,2013-06-14 00:45:00,
2013-06-13 20:50:00,56.7,55.9,29.72,SW,234,0.0,0.0,97,0.01,,-RA,0.01,VWS V12.08,2013-06-14 00:50:00,
2013-06-13 20:55:00,56.6,56.0,29.72,SW,234,0.0,0.0,98,0.01,,-RA,0.01,VWS V12.08,2013-06-14 00:55:00,
2013-06-13 21:00:00,56.4,55.8,29.72,SW,234,0.0,0.0,98,0.01,,-RA,0.01,VWS V12.08,2013-06-14 01:00:00,
2013-06-13 21:05:00,56.4,55.8,29.72,SW,234,0.0,0.0,98,0.01,,-RA,0.01,VWS V12.08,2013-06-14 01:05:00,
2013-06-13 21:10:00,56.3,56.0,29.72,SW,234,0.0,0.0,99,0.01,,-RA,0.01,VWS V12.08,2013-06-14 01:10:00,
2013-06-13 21:15:00,56.3,56.0,29.72,SW,234,0.0,0.0,99,0.01,,-RA,0.01,VWS V12.08,2013-06-14 01:15:00,
2013-06-13 21:20:00,56.3,56.0,29.72,SW,234,0.0,0.0,99,0.00,,-RA,0.01,VWS V12.08,2013-06-14 01:20:00,
2013-06-13 21:25:00,56.3,56.0,29.72,SW,234,0.0,0.0,99,0.00,,-RA,0.01,VWS V12.08,2013-06-14 01:25:00,
2013-06-13 21:30:00,56.1,56.1,29.72,SW,234,0.0,0.0,100,0.00,,-RA,0.01,VWS V12.08,2013-06-14 01:30:00,
2013-06-13 21:35:00,56.1,56.1,29.72,SW,234,0.0,0.0,100,0.00,,-RA,0.01,VWS V12.08,2013-06-14 01:35:00,
2013-06-13 21:40:00,56.1,56.1,29.72,SW,234,0.0,0.0,100,0.00,,-RA,0.01,VWS V12.08,2013-06-14 01:40:00,
2013-06-13 21:45:00,56.0,56.0,29.72,SW,234,0.0,0.0,100,0.00,,-RA,0.01,VWS V12.08,2013-06-14 01:45:00,
2013-06-13 21:50:00,56.0,56.0,29.72,SW,234,0.0,0.0,100,0.00,,-RA,0.01,VWS V12.08,2013-06-14 01:50:00,
2013-06-13 21:55:00,56.0,56.0,29.72,SW,234,0.0,0.0,100,0.00,,-RA,0.01,VWS V12.08,2013-06-14 01:55:00,
2013-06-13 22:00:00,55.8,55.8,29.72,SW,234,0.0,0.0,100,0.00,,-RA,0.01,VWS V12.08,2013-06-14 02:00:00,
2013-06-13 22:05:00,56.3,56.3,29.72,SW,234,0.0,0.0,100,0.00,,OVC047,0.01,VWS V12.08,2013-06-14 02:05:00,
2013-06-13 22:10:00,56.3,56.3,29.72,SW,234,0.0,0.0,100,0.00,,OVC047,0.01,VWS V12.08,2013-06-14 02:10:00,
2013-06-13 22:15:00,56.1,56.1,29.71,SW,234,0.0,0.0,100,0.00,,OVC047,0.01,VWS V12.08,2013-06-14 02:15:00,
2013-06-13 22:20:00,56.0,56.0,29.71,SW,234,0.0,0.0,100,0.00,,OVC047,0.01,VWS V12.08,2013-06-14 02:20:00,
2013-06-13 22:25:00,56.3,56.3,29.71,SW,234,0.0,0.0,100,0.00,,OVC047,0.01,VWS V12.08,2013-06-14 02:25:00,
2013-06-13 22:30:00,56.3,56.3,29.71,SW,234,0.0,0.0,100,0.00,,OVC047,0.01,VWS V12.08,2013-06-14 02:30:00,
2013-06-13 22:35:00,56.1,56.1,29.71,SW,234,0.0,0.0,100,0.00,,OVC047,0.01,VWS V12.08,2013-06-14 02:35:00,
2013-06-13 22:40:00,56.0,56.0,29.71,SW,234,0.0,0.0,100,0.00,,OVC047,0.01,VWS V12.08,2013-06-14 02:40:00,
2013-06-13 22:45:00,55.8,55.8,29.71,SW,234,0.0,0.0,100,0.00,,OVC047,0.01,VWS V12.08,2013-06-14 02:45:00,
2013-06-13 22:50:00,55.6,55.6,29.71,SW,234,0.0,0.0,100,0.00,,OVC047,0.01,VWS V12.08,2013-06-14 02:50:00,
2013-06-13 22:55:00,55.5,55.5,29.71,SW,234,0.0,0.0,100,0.00,,OVC047,0.01,VWS V12.08,2013-06-14 02:55:00,
2013-06-13 23:00:00,55.3,55.3,29.71,SW,234,0.0,0.0,100,0.00,,OVC047,0.01,VWS V12.08,2013-06-14 03:00:00,
2013-06-13 23:05:00,55.2,55.2,29.71,SW,234,0.0,0.0,100,0.00,,BKN060,0.01,VWS V12.08,2013-06-14 03:05:00,
2013-06-13 23:10:00,55.0,55.0,29.71,SW,234,0.0,0.0,100,0.00,,BKN060,0.01,VWS V12.08,2013-06-14 03:10:00,
2013-06-13 23:15:00,54.9,54.9,29.71,SW,234,0.0,0.0,100,0.00,,BKN060,0.01,VWS V12.08,2013-06-14 03:15:00,
2013-06-13 23:20:00,54.7,54.7,29.71,SW,234,0.0,0.0,100,0.00,,BKN060,0.01,VWS V12.08,2013-06-14 03:20:00,
2013-06-13 23:25:00,54.7,54.7,29.71,SW,234,0.0,0.0,100,0.00,,BKN060,0.01,VWS V12.08,2013-06-14 03:25:00,
2013-06-13 23:30:00,54.7,54.7,29.71,SW,234,0.0,0.0,100,0.00,,BKN060,0.01,VWS V12.08,2013-06-14 03:30:00,
2013-06-13 23:35:00,54.6,54.6,29.71,SW,234,0.0,0.0,100,0.00,,BKN060,0.01,VWS V12.08,2013-06-14 03:35:00,
2013-06-13 23:40:00,54.5,54.5,29.71,SW,234,0.0,0.0,100,0.00,,BKN060,0.01,VWS V12.08,2013-06-14 03:40:00,
2013-06-13 23:45:00,54.5,54.5,29.71,SW,234,0.0,0.0,100,0.00,,BKN060,0.01,VWS V12.08,2013-06-14 03:45:00,
2013-06-13 23:50:00,54.5,54.5,29.71,SW,234,0.0,0.0,100,0.00,,BKN060,0.01,VWS V12.08,2013-06-14 03:50:00,
2013-06-13 23:55:00,54.6,54.6,29.71,SW,234,2.0,2.0,100,0.00,,BKN060,0.01,VWS V12.08,2013-06-14 03:55:00,